USA 149 (DSP 20)        
1 26356U 00024A   19261.06160608  .00000101  00000-0  00000+0 0  9995
2 26356  11.3223  28.4122 0001614 242.0846 303.4683  1.00258496  6898
IUS R/B(1)              
1 26358U 00024C   19260.21146702  .00000147  00000-0  89315-4 0  9993
2 26358  28.6536 205.8432 7175365 228.2992  43.4552  2.38196283  1116
IUS R/B(2)              
1 26359U 00024D   19260.24186143 -.00000277  00000-0  00000-0 0  9995
2 26359  11.4124  28.9291 0004083  76.0641 284.0318  0.99708454   776
USA 149 DEB             
1 28156U 00024E   19252.76407707 -.00000037  00000-0  00000-0 0  9996
2 28156  11.8327  28.4036 0178200 124.3818 173.5324  0.99723182    00